Location: Petruro
(41.0333°N, 14.7833°E)
Time: 11:24:49
(UTC+00:00)

SL-16 R/B - Pass Details

Date: 20 June 2021
Orbit: 842 x 847 km, 71.0° (Epoch: 28 July)

Event Time Altitude Azimuth Distance (km) Brightness Sun altitude
Exits shadow 00:19:52 12° 270° (W) 2,338 4.3 -23.1°
Maximum altitude 00:23:13 19° 310° (NW) 1,926 4.2 -22.9°
Drops below altitude 10° 00:27:07 10° 354° (N) 2,471 5.5 -22.6°
Sets 00:30:22 0° 12° (NNE) 3,410 6.8 -22.4°
